Wind_Speed
29 33 31 25 27 25 29 31 20 23 36 41 37 31 26 24 18 14 15 15 14 15 15 15 15 18 20 20 20 21 18 17
26 36 18 18 25 25 28 25 28 27 31 46 38 33 25 24 18 17 15 15 16 18 17 19 20 18 17 20 22 19 17 17
29 22 13 17 21 22 28 26 23 27 35 44 38 27 27 24 18 17 16 16 17 19 21 17 18 17 19 20 20 22 19 17
24 24 21 25 26 30 30 25 26 31 38 41 37 29 30 25 19 17 17 17 22 21 20 19 22 20 22 23 25 24 18 19
16 18 18 20 25 28 27 27 35 39 34 44 40 30 31 26 20 22 21 21 19 25 22 23 25 21 19 21 22 20 20 20
9 7 7 15 24 26 22 19 37 40 33 38 38 29 37 27 25 23 22 23 23 25 28 28 24 20 22 26 26 25 22 22
7 7 7 13 17 29 24 22 37 37 33 34 43 37 38 31 25 25 20 19 21 26 28 28 24 22 25 31 27 22 23 21
10 6 10 1 18 20 25 34 27 35 36 32 42 33 34 34 26 26 22 20 23 25 26 27 23 24 24 26 27 24 25 21
13 7 15 14 13 23 26 28 31 36 33 30 24 29 34 28 27 25 23 22 24 25 27 27 24 26 28 30 23 25 22 20
14 13 11 8 10 15 24 25 25 33 34 24 26 28 31 32 28 23 21 24 29 28 26 29 29 29 29 29 28 26 24 23
13 12 7 14 8 9 11 19 30 28 33 28 26 28 31 31 28 22 23 28 30 29 28 30 30 32 35 30 29 27 27 28
17 20 12 9 9 13 17 14 17 29 29 28 27 27 27 28 28 28 29 28 31 30 30 30 32 32 32 29 31 35 30 28
9 18 16 20 11 11 10 13 15 20 27 26 25 23 24 27 29 29 28 30 29 28 28 31 33 31 32 37 36 30 29 29
1 4 16 21 17 20 18 16 18 19 27 23 26 27 27 28 30 28 27 28 27 27 27 29 33 31 31 33 29 27 31 32
4 2 1 9 18 23 23 23 24 24 28 26 27 32 28 30 32 26 26 24 24 25 26 29 29 29 33 30 31 33 34 36
2 2 2 2 6 8 9 9 11 20 23 20 21 24 24 25 21 20 23 20 21 24 27 29 27 28 29 33 37 37 38 38
2 2 3 4 6 7 8 9 11 14 14 13 15 14 14 15 17 19 19 19 22 25 28 29 29 31 32 36 36 37 39 41
8 7 6 7 8 10 9 9 11 13 16 17 17 16 17 19 21 21 21 23 25 28 31 31 28 32 32 33 37 40 39 40
8 8 8 7 8 9 9 10 11 11 11 13 13 15 17 20 20 22 25 28 31 31 32 31 31 33 33 36 39 40 42 40
10 10 11 12 13 12 12 12 12 12 10 11 13 14 16 19 20 23 25 28 29 30 28 27 28 32 32 33 41 46 47 45
Wind_Direction
240 234 229 234 246 245 238 253 244 232 202 194 192 193 199 205 204 214 226 244 264 272 273 281 286 296 273 264 259 255 247 244
244 232 209 221 234 237 239 247 247 219 214 214 205 199 205 205 204 215 231 254 262 271 269 272 276 288 264 254 253 245 237 239
236 240 240 224 234 229 244 240 210 208 212 193 204 211 210 206 212 215 239 249 267 271 263 263 281 275 262 248 237 230 225 236
219 224 234 229 233 229 222 215 206 194 200 198 216 215 205 209 215 223 236 248 252 252 254 260 271 262 257 250 240 231 224 233
209 243 231 223 227 209 203 195 185 199 196 206 206 211 214 212 216 222 224 242 257 254 252 259 261 261 259 249 241 225 225 229
240 217 209 236 209 208 211 198 186 195 206 210 215 214 217 214 216 226 229 242 252 256 252 258 251 244 248 244 227 218 224 230
250 219 225 227 200 204 212 193 190 209 222 210 213 218 221 218 222 221 224 237 248 250 250 246 244 245 242 238 221 218 226 235
246 238 142 100 187 199 212 242 218 218 217 216 209 212 222 206 214 224 230 237 242 251 245 242 241 240 237 220 220 221 227 231
237 226 146 143 138 169 188 211 204 206 205 199 205 206 199 205 220 221 230 239 244 250 252 249 244 239 231 221 214 221 225 227
228 222 140 152 127 149 166 181 195 197 195 195 197 206 217 215 220 227 233 243 248 249 252 250 249 239 223 216 220 223 226 233
213 216 277 181 215 205 176 172 175 184 195 203 216 222 222 224 229 241 246 249 254 256 250 249 242 234 217 212 219 226 231 234
223 214 235 241 188 191 200 192 208 198 210 215 223 216 221 230 236 243 246 251 257 254 254 245 228 222 218 211 223 225 228 247
272 249 263 252 209 223 216 202 230 230 228 230 235 235 242 237 240 244 250 255 252 252 244 225 219 212 210 217 228 219 239 249
28 273 237 228 237 212 239 239 229 231 219 231 239 244 242 245 247 250 248 247 246 233 221 223 218 218 216 223 224 237 248 255
288 275 91 185 219 238 238 249 250 238 229 243 249 244 244 249 254 248 245 236 229 221 213 217 220 218 226 233 241 246 252 256
229 258 211 161 182 190 208 209 211 217 228 233 234 236 233 234 241 238 228 225 219 216 219 225 226 232 236 239 242 246 252 258
228 237 241 196 200 220 224 210 192 197 208 215 213 208 202 204 215 221 225 231 230 237 242 240 239 241 242 246 249 252 257 263
268 256 235 237 219 202 209 210 208 206 204 211 212 210 212 213 219 225 236 237 242 247 252 253 253 252 251 255 259 261 263 267
258 266 263 246 239 231 209 212 220 221 221 222 225 226 226 226 232 236 236 234 238 243 252 256 260 260 262 265 269 269 269 267
249 263 272 269 261 244 246 240 226 224 225 226 230 238 244 246 244 245 246 247 246 250 253 260 261 261 265 267 267 270 273 269
Height
5746 5752 5758 5763 5768 5770 5774 5777 5779 5783 5790 5796 5802 5805 5808 5813 5815 5817 5820 5822 5824 5826 5829 5830 5832 5832 5832 5834 5836 5837 5838 5840
5739 5744 5751 5755 5761 5763 5769 5771 5774 5777 5783 5790 5795 5801 5805 5811 5811 5815 5817 5818 5820 5824 5825 5826 5828 5828 5829 5831 5833 5834 5836 5838
5739 5739 5746 5750 5755 5759 5763 5765 5768 5773 5777 5785 5791 5797 5803 5806 5807 5810 5813 5814 5816 5819 5822 5822 5822 5824 5825 5827 5828 5829 5831 5834
5737 5740 5744 5749 5751 5752 5758 5760 5762 5768 5775 5781 5788 5793 5798 5801 5803 5806 5809 5811 5813 5815 5818 5819 5818 5821 5822 5822 5824 5824 5827 5830
5734 5736 5742 5743 5746 5748 5752 5754 5757 5764 5770 5776 5782 5789 5792 5796 5799 5802 5805 5808 5808 5810 5812 5814 5816 5818 5818 5819 5820 5822 5825 5826
5731 5733 5735 5737 5739 5741 5747 5751 5754 5760 5767 5773 5779 5784 5788 5791 5795 5798 5801 5803 5804 5806 5808 5811 5812 5812 5814 5815 5816 5818 5821 5824
5731 5731 5730 5731 5732 5736 5742 5749 5754 5758 5763 5769 5774 5779 5783 5787 5791 5794 5798 5799 5800 5800 5801 5804 5806 5807 5809 5809 5812 5815 5818 5820
5729 5729 5729 5729 5728 5731 5738 5745 5751 5754 5758 5764 5770 5775 5779 5782 5785 5790 5792 5794 5796 5796 5797 5799 5800 5801 5804 5807 5811 5813 5816 5817
5729 5727 5727 5728 5728 5730 5735 5742 5745 5750 5757 5763 5764 5770 5775 5778 5780 5784 5787 5788 5790 5792 5793 5794 5795 5797 5800 5803 5806 5810 5812 5813
5727 5726 5727 5730 5730 5732 5735 5741 5745 5751 5756 5758 5762 5766 5770 5772 5776 5779 5781 5783 5785 5787 5787 5790 5791 5791 5794 5798 5802 5805 5806 5806
5724 5724 5726 5729 5731 5733 5736 5739 5743 5748 5752 5755 5759 5762 5766 5769 5772 5774 5775 5776 5779 5781 5781 5783 5785 5787 5790 5795 5799 5800 5801 5802
5723 5723 5725 5728 5730 5733 5735 5738 5742 5746 5750 5753 5757 5759 5763 5765 5768 5770 5772 5773 5773 5774 5776 5777 5778 5781 5785 5790 5793 5794 5796 5797
5721 5722 5724 5727 5729 5732 5735 5739 5741 5744 5748 5751 5755 5756 5758 5762 5765 5766 5766 5768 5768 5769 5771 5772 5774 5778 5782 5786 5786 5789 5791 5791
5726 5725 5724 5725 5727 5730 5734 5737 5739 5742 5745 5749 5752 5754 5756 5758 5759 5761 5761 5762 5764 5765 5768 5771 5772 5774 5777 5779 5783 5786 5785 5786
5727 5725 5724 5724 5726 5729 5733 5734 5736 5740 5744 5746 5748 5749 5751 5753 5754 5756 5757 5758 5760 5761 5765 5768 5770 5772 5774 5776 5778 5780 5780 5780
5728 5726 5725 5725 5727 5728 5731 5732 5732 5735 5739 5740 5743 5744 5745 5748 5750 5752 5756 5755 5758 5760 5763 5765 5766 5770 5771 5771 5772 5773 5774 5774
5727 5727 5727 5726 5727 5729 5730 5731 5733 5735 5737 5738 5741 5743 5744 5746 5748 5752 5753 5755 5755 5758 5761 5761 5760 5763 5764 5764 5765 5768 5767 5767
5727 5727 5728 5729 5728 5729 5729 5729 5731 5734 5735 5737 5739 5740 5743 5745 5747 5747 5747 5751 5754 5755 5755 5754 5756 5757 5757 5759 5759 5758 5758 5758
5726 5727 5727 5727 5728 5728 5727 5728 5729 5731 5733 5735 5737 5739 5740 5741 5742 5743 5744 5745 5746 5746 5748 5749 5750 5751 5751 5752 5751 5751 5748 5748
5723 5724 5725 5726 5726 5726 5726 5726 5727 5728 5729 5731 5733 5735 5735 5735 5737 5738 5740 5741 5739 5740 5740 5741 5742 5742 5742 5741 5742 5742 5739 5736